Change the Weather History Date:

Wednesday, September 18, 2013

  Actual Average (KLOZ) Record (KLOZ)
Temperature  
Mean Temperature 62 °F 68 °F  
Max Temperature 64 °F 79 °F 91 °F (1998)
Min Temperature 59 °F 56 °F 41 °F (1961)
Degree Days  
Heating Degree Days 4 2  
Month to date heating degree days 9  
Since 1 July heating degree days 10  
Cooling Degree Days 0 4  
Month to date cooling degree days 109  
Year to date cooling degree days 1133  
Growing Degree Days 12 (Base 50)    
Moisture  
Dew Point 58 °F    
Average Humidity 89    
Maximum Humidity 100    
Minimum Humidity 77    
Precipitation  
Precipitation 0.00 in 0.11 in 2.44 in (1992)
Month to date precipitation 2.02  
Year to date precipitation 34.70  
Sea Level Pressure  
Sea Level Pressure 30.25 in    
Wind  
Wind Speed 1 mph (ENE)    
Max Wind Speed 6 mph    
Max Gust Speed -    
Visibility 9 miles    
Events Rain    
T = Trace of Precipitation, MM = Missing Value Source: NWS Daily Summary

Daily Weather History Graph

Daily Weather History Graph

Search for Another Location

Airport or City:

Trip Planner

Search our weather history database for the weather conditions in past years. The results will help you decide how hot, cold, wet, or windy it might be!

Date:

Astronomy

Sep. 18, 2013 Rise Set
Actual Time 7:17 AM EDT 7:35 PM EDT
Civil Twilight 6:51 AM EDT 8:01 PM EDT
Nautical Twilight 6:21 AM EDT 8:31 PM EDT
Astronomical Twilight 5:50 AM EDT 9:02 PM EDT
Moon 6:58 PM EDT (9/18) 6:19 AM EDT (9/18)
Length of Visible Light 13h 09m
Length of Day
12h 17m
Waxing Gibbous, 99% of the Moon is Illuminated
Sep 18
Waxing Gibbous
Sep 19
Full
Sep 26
Last Quarter
Oct 4
New
Oct 11
First Quarter

Hourly Weather History & Observations

Time (EDT) Temp. Dew Point Humidity Pressure Visibility Wind Dir Wind Speed Gust Speed Precip Events Conditions
12:15 AM 62.6 °F 57.2 °F 82% 30.26 in 10.0 mi NE 4.6 mph - N/A   Unknown
12:35 AM 62.6 °F 57.2 °F 82% 30.26 in 10.0 mi NE 3.5 mph - N/A   Unknown
12:55 AM 62.6 °F 55.4 °F 77% 30.26 in 10.0 mi Calm Calm - N/A   Unknown
1:15 AM 60.8 °F 57.2 °F 88% 30.26 in 10.0 mi Calm Calm - N/A   Unknown
1:35 AM 60.8 °F 57.2 °F 88% 30.25 in 10.0 mi NE 4.6 mph - N/A   Unknown
1:55 AM 60.8 °F 55.4 °F 82% 30.25 in 10.0 mi NE 4.6 mph - N/A   Unknown
2:15 AM 59.0 °F 55.4 °F 88% 30.25 in 10.0 mi Calm Calm - N/A   Unknown
2:35 AM 59.0 °F 55.4 °F 88% 30.25 in 10.0 mi Calm Calm - N/A   Unknown
2:55 AM 59.0 °F 55.4 °F 88% 30.25 in 10.0 mi Calm Calm - N/A   Unknown
3:15 AM 60.8 °F 55.4 °F 82% 30.25 in 10.0 mi ENE 3.5 mph - N/A   Unknown
3:35 AM 60.8 °F 55.4 °F 82% 30.24 in 10.0 mi ENE 4.6 mph - N/A   Unknown
3:55 AM 59.0 °F 55.4 °F 88% 30.24 in 10.0 mi NE 3.5 mph - N/A   Unknown
4:15 AM 59.0 °F 55.4 °F 88% 30.24 in 10.0 mi Calm Calm - N/A   Unknown
4:35 AM 59.0 °F 55.4 °F 88% 30.24 in 10.0 mi Calm Calm - N/A   Unknown
4:55 AM 59.0 °F 55.4 °F 88% 30.24 in 10.0 mi Calm Calm - N/A   Unknown
5:15 AM 59.0 °F 55.4 °F 88% 30.24 in 10.0 mi Calm Calm - N/A   Unknown
5:35 AM 59.0 °F 55.4 °F 88% 30.24 in 10.0 mi ENE 5.8 mph - N/A   Unknown
5:55 AM 59.0 °F 55.4 °F 88% 30.25 in 10.0 mi Calm Calm - N/A   Unknown
6:15 AM 59.0 °F 55.4 °F 88% 30.25 in 10.0 mi Calm Calm - N/A   Unknown
6:35 AM 59.0 °F 55.4 °F 88% 30.25 in 10.0 mi Calm Calm - N/A   Unknown
6:55 AM 59.0 °F 55.4 °F 88% 30.25 in 10.0 mi Calm Calm - N/A   Unknown
7:15 AM 59.0 °F 55.4 °F 88% 30.26 in 10.0 mi Calm Calm - N/A   Unknown
7:35 AM 59.0 °F 55.4 °F 88% 30.26 in 10.0 mi Calm Calm - N/A   Unknown
7:55 AM 59.0 °F 55.4 °F 88% 30.27 in 10.0 mi Calm Calm - N/A   Overcast
8:15 AM 60.8 °F 55.4 °F 82% 30.26 in 10.0 mi Calm Calm - N/A   Mostly Cloudy
8:35 AM 60.8 °F 55.4 °F 82% 30.26 in 10.0 mi Calm Calm - N/A   Overcast
8:55 AM 60.8 °F 55.4 °F 82% 30.27 in 10.0 mi Calm Calm - N/A   Overcast
9:15 AM 62.6 °F 55.4 °F 77% 30.27 in 10.0 mi Calm Calm - N/A   Overcast
9:35 AM 62.6 °F 55.4 °F 77% 30.27 in 10.0 mi Calm Calm - N/A   Overcast
9:55 AM 62.6 °F 55.4 °F 77% 30.28 in 10.0 mi Calm Calm - N/A   Overcast
10:15 AM 62.6 °F 57.2 °F 82% 30.28 in 10.0 mi Calm Calm - N/A Rain Light Rain
10:35 AM 62.6 °F 55.4 °F 77% 30.29 in 10.0 mi Calm Calm - N/A   Overcast
10:55 AM 62.6 °F 55.4 °F 77% 30.29 in 10.0 mi Calm Calm - N/A   Overcast
11:15 AM 62.6 °F 55.4 °F 77% 30.29 in 10.0 mi Calm Calm - N/A   Overcast
11:35 AM 62.6 °F 57.2 °F 82% 30.28 in 5.0 mi Calm Calm - N/A Rain Light Rain
11:55 AM 62.6 °F 57.2 °F 82% 30.29 in 9.0 mi Calm Calm - N/A   Overcast
12:15 PM 62.6 °F 57.2 °F 82% 30.28 in 10.0 mi Calm Calm - N/A   Overcast
12:35 PM 62.6 °F 57.2 °F 82% 30.28 in 10.0 mi Calm Calm - N/A   Overcast
12:55 PM 62.6 °F 57.2 °F 82% 30.28 in 6.0 mi Calm Calm - N/A Rain Light Rain
1:15 PM 62.6 °F 57.2 °F 82% 30.27 in 10.0 mi Calm Calm - N/A   Mostly Cloudy
1:35 PM 62.6 °F 59.0 °F 88% 30.27 in 10.0 mi Calm Calm - N/A   Overcast
1:55 PM 62.6 °F 57.2 °F 82% 30.26 in 10.0 mi East 4.6 mph - N/A   Overcast
2:15 PM 62.6 °F 57.2 °F 82% 30.26 in 10.0 mi ENE 3.5 mph - N/A   Overcast
2:35 PM 62.6 °F 59.0 °F 88% 30.25 in 10.0 mi Calm Calm - N/A   Overcast
2:55 PM 64.4 °F 59.0 °F 83% 30.25 in 10.0 mi Calm Calm - N/A   Overcast
3:15 PM 64.4 °F 59.0 °F 83% 30.24 in 10.0 mi East 3.5 mph - N/A   Overcast
3:35 PM 64.4 °F 59.0 °F 83% 30.24 in 5.0 mi Calm Calm - N/A Rain Light Rain
3:55 PM 62.6 °F 60.8 °F 94% 30.23 in 10.0 mi NE 3.5 mph - N/A   Overcast
4:15 PM 62.6 °F 59.0 °F 88% 30.23 in 9.0 mi Calm Calm - N/A Rain Light Rain
4:35 PM 62.6 °F 60.8 °F 94% 30.23 in 10.0 mi Calm Calm - N/A   Overcast
4:55 PM 62.6 °F 59.0 °F 88% 30.23 in 10.0 mi NE 4.6 mph - N/A   Overcast
5:15 PM 62.6 °F 60.8 °F 94% 30.23 in 10.0 mi Calm Calm - N/A   Overcast
5:35 PM 62.6 °F 60.8 °F 94% 30.23 in 10.0 mi Calm Calm - N/A   Overcast
5:55 PM 60.8 °F 60.8 °F 100% 30.22 in 3.0 mi NE 3.5 mph - N/A Rain Light Rain
6:15 PM 60.8 °F 60.8 °F 100% 30.22 in 5.0 mi ENE 4.6 mph - N/A   Overcast
6:35 PM 60.8 °F 60.8 °F 100% 30.22 in 3.0 mi Calm Calm - N/A   Mostly Cloudy
6:55 PM 60.8 °F 60.8 °F 100% 30.22 in 5.0 mi Calm Calm - N/A   Overcast
7:15 PM 60.8 °F 60.8 °F 100% 30.21 in 9.0 mi Calm Calm - N/A   Overcast
7:35 PM 60.8 °F 60.8 °F 100% 30.21 in 10.0 mi Calm Calm - N/A   Unknown
7:55 PM 60.8 °F 60.8 °F 100% 30.21 in 10.0 mi Calm Calm - N/A   Unknown
8:15 PM 60.8 °F 60.8 °F 100% 30.21 in 10.0 mi Calm Calm - N/A   Unknown
8:35 PM 60.8 °F 60.8 °F 100% 30.22 in 10.0 mi Calm Calm - N/A   Unknown
8:55 PM 60.8 °F 60.8 °F 100% 30.22 in 10.0 mi Calm Calm - N/A   Unknown
9:15 PM 60.8 °F 60.8 °F 100% 30.23 in 10.0 mi Calm Calm - N/A   Unknown
9:35 PM 60.8 °F 60.8 °F 100% 30.23 in 10.0 mi Calm Calm - N/A   Unknown
9:55 PM 60.8 °F 60.8 °F 100% 30.23 in 10.0 mi Calm Calm - N/A   Unknown
10:15 PM 60.8 °F 60.8 °F 100% 30.23 in 10.0 mi Calm Calm - N/A   Unknown
10:35 PM 60.8 °F 60.8 °F 100% 30.23 in 10.0 mi Calm Calm - N/A   Unknown
10:55 PM 60.8 °F 60.8 °F 100% 30.23 in 10.0 mi Calm Calm - N/A   Unknown
11:15 PM 60.8 °F 60.8 °F 100% 30.23 in 10.0 mi Calm Calm - N/A   Unknown
11:35 PM 60.8 °F 60.8 °F 100% 30.23 in 10.0 mi Calm Calm - N/A   Unknown
11:55 PM 60.8 °F 60.8 °F 100% 30.22 in 10.0 mi Calm Calm - N/A   Unknown